Location: Cabeza de los Veneras
(40.2000°N, 5.2000°W)
Time: 12:47:43
(UTC+00:00)

Resurs 01 Rocket - Pass Details

Date: 18 April 2024
Orbit: 631 x 640 km, 97.8° (Epoch: 22 May)

Event Time Altitude Azimuth Distance (km) Brightness Sun altitude
Exits shadow 19:39:07 - 138° (SE) 2,337 4.0 -7.4°
Reaches altitude 10° 19:39:59 10° 134° (SE) 2,018 3.6 -7.5°
Maximum altitude 19:43:54 33° 70° (ENE) 1,078 2.4 -8.2°
Drops below altitude 10° 19:47:52 10° 7° (N) 2,036 4.4 -8.9°
Sets 19:50:14 0° 358° (N) 2,951 5.4 -9.3°
